Location: Moonridge Observatory
(39.2268°N, 77.7914°W)
Time: 10:31:33
(UTC-04:00)

Amateur Radio Satellites - All Passes

Search period start: 19 April 2014 10:01
Search period end: 20 April 2014 10:01
Location: Moonridge Observatory, 39.2268°N, 77.7914°W

Satellite Date Start Highest point End Downlink Frequencies (MHz)
Time Altitude Azimuth
KITSAT 1 19 Apr 10:02:21 10:06:28 14° 28° (NNE) 10:10:34 435.175 FM
JAS-2 19 Apr 10:16:33 10:18:23 12° 299° (WNW) 10:20:15 435.800 - 435.900 CW/SSB, 435.910 FM
PANSAT 19 Apr 10:17:55 10:20:18 16° 175° (S) 10:22:41 not established
PCSat 19 Apr 10:26:12 10:31:40 80° 62° (ENE) 10:37:04 145.825 MHz
RS-15 19 Apr 10:36:34 10:45:00 24° 333° (NNW) 10:53:22 29.354 - 29.394 USB, Beacon 29.352 USB
HO-68 19 Apr 10:37:56 10:45:10 87° 106° (ESE) 10:52:22 435.675 MHz FM
Saudisat 1A 19 Apr 10:54:26 10:58:18 29° 113° (ESE) 11:02:11 436.775 MHz
FUNcube-1 19 Apr 11:04:29 11:08:04 26° 96° (E) 11:11:42 145.950 - 145.970 MHz USB
Oscar 11 19 Apr 11:14:46 11:19:07 71° 285° (WNW) 11:23:27 145.825 FM, Beacon 2401.500 USB
Sapphire 19 Apr 11:25:01 11:29:52 34° 250° (WSW) 11:34:41 437.095 MHz 1200 baud AX-25 AFSK
KITSAT 1 19 Apr 11:56:19 12:04:09 49° 53° (NE) 12:11:54 435.175 FM
PANSAT 19 Apr 11:57:37 11:59:52 15° 188° (S) 12:02:06 not established
PCSat 19 Apr 12:12:09 12:14:19 12° 258° (WSW) 12:16:30 145.825 MHz
HO-68 19 Apr 12:27:24 12:31:56 18° 304° (NW) 12:36:29 435.675 MHz FM
Saudisat 1A 19 Apr 12:33:56 12:37:51 29° 310° (NW) 12:41:47 436.775 MHz
Oscar 19 19 Apr 12:35:53 12:38:18 14° 61° (ENE) 12:40:44 437.125 CW, 437.150 USB
FUNcube-1 19 Apr 12:40:55 12:44:24 25° 291° (WNW) 12:47:57 145.950 - 145.970 MHz USB
Oscar 16 19 Apr 12:43:10 12:46:25 17° 63° (ENE) 12:49:41 437.025 USB, Beacon 2401.1428
RS-15 19 Apr 12:56:15 13:03:06 18° 10° (N) 13:09:56 29.354 - 29.394 USB, Beacon 29.352 USB
Uribyol 2 19 Apr 13:17:46 13:21:21 19° 64° (ENE) 13:24:55 436.500 FM
Gurwin Techsat 1B 19 Apr 13:51:39 13:53:30 12° 59° (ENE) 13:55:20 435.225 FM
KITSAT 1 19 Apr 13:52:04 13:59:19 38° 252° (WSW) 14:06:32 435.175 FM
AO-27 19 Apr 13:56:22 14:01:13 42° 70° (ENE) 14:06:06 436.795 MHz FM
ITAMSAT 1 19 Apr 14:06:55 14:11:56 52° 72° (ENE) 14:16:57 435.822 SSB
Oscar 19 19 Apr 14:11:51 14:16:58 75° 257° (WSW) 14:22:09 437.125 CW, 437.150 USB
AO-Echo 19 Apr 14:14:50 14:19:53 49° 72° (ENE) 14:24:49 ?
Oscar 16 19 Apr 14:20:14 14:25:16 58° 259° (W) 14:30:22 437.025 USB, Beacon 2401.1428
TMSAT-1 19 Apr 14:37:21 14:41:23 23° 65° (ENE) 14:45:26 436.925 FM
Uribyol 2 19 Apr 14:55:24 15:00:25 51° 260° (W) 15:05:27 436.500 FM
AO-7 19 Apr 15:00:22 15:06:03 21° 53° (NE) 15:11:43 29.400 - 29.500 MHz
RS-15 19 Apr 15:09:36 15:19:44 40° 43° (NE) 15:30:00 29.354 - 29.394 USB, Beacon 29.352 USB
SO-50 19 Apr 15:10:58 15:14:32 24° 112° (ESE) 15:18:08 436.795 FM
JAS-1B 19 Apr 15:18:29 15:25:39 37° 68° (ENE) 15:31:48 435.800 - 435.900 CW/SSB
OPAL 19 Apr 15:25:45 15:30:31 35° 99° (E) 15:35:14 ?
Gurwin Techsat 1B 19 Apr 15:27:21 15:32:40 89° 256° (WSW) 15:38:01 435.225 FM
AO-27 19 Apr 15:36:55 15:40:53 22° 266° (W) 15:44:52 436.795 MHz FM
ISS 19 Apr 15:47:48 15:51:08 83° 140° (SE) 15:54:30 145.800 FM
ITAMSAT 1 19 Apr 15:48:17 15:51:43 18° 267° (W) 15:55:09 435.822 SSB
AO-Echo 19 Apr 15:55:10 15:58:51 19° 267° (W) 16:02:29 ?
Uosat F 19 Apr 16:11:51 16:16:49 65° 73° (ENE) 16:21:48 435.120 FM
TMSAT-1 19 Apr 16:15:58 16:21:00 44° 261° (W) 16:26:04 436.925 FM
AO-7 19 Apr 16:49:29 16:57:47 88° 252° (WSW) 17:06:07 29.400 - 29.500 MHz
SO-50 19 Apr 16:50:48 16:54:55 35° 309° (NW) 16:59:04 436.795 FM
OPAL 19 Apr 17:04:49 17:09:14 29° 295° (WNW) 17:13:39 ?
JAS-1B 19 Apr 17:08:23 17:16:08 43° 260° (W) 17:22:45 435.800 - 435.900 CW/SSB
RS-15 19 Apr 17:21:55 17:32:38 63° 246° (WSW) 17:43:41 29.354 - 29.394 USB, Beacon 29.352 USB
Hamsat 19 Apr 17:23:59 17:25:26 12° 64° (ENE) 17:26:53 145.90 MHz
ISS 19 Apr 17:25:51 17:28:15 18° 338° (NNW) 17:30:39 145.800 FM
UOSAT-12 19 Apr 17:33:12 17:37:21 36° 114° (ESE) 17:41:35 437.025 FM, 437.400 FM
Uosat F 19 Apr 17:53:37 17:56:01 13° 269° (W) 17:58:26 435.120 FM
JAS-2 19 Apr 18:40:35 18:45:38 32° 69° (ENE) 18:50:20 435.800 - 435.900 CW/SSB, 435.910 FM
SO-67 19 Apr 18:44:59 18:46:49 14° 68° (ENE) 18:48:40 435.3500 MHz FM
AO-7 19 Apr 18:46:48 18:51:33 16° 269° (W) 18:56:20 29.400 - 29.500 MHz
Hamsat 19 Apr 18:56:44 19:00:52 60° 260° (W) 19:05:04 145.90 MHz
UOSAT-12 19 Apr 19:13:43 19:17:34 26° 312° (NW) 19:21:29 437.025 FM, 437.400 FM
Saudisat 1A 19 Apr 19:22:22 19:25:41 20° 46° (NE) 19:28:57 436.775 MHz
HO-68 19 Apr 19:24:12 19:25:40 11° 50° (NE) 19:27:09 435.675 MHz FM
RS-15 19 Apr 19:40:53 19:42:41 11° 265° (W) 19:44:29 29.354 - 29.394 USB, Beacon 29.352 USB
STRAND 1 19 Apr 19:42:27 19:47:29 59° 101° (E) 19:52:30 ?
SO-67 19 Apr 20:16:33 20:19:41 31° 263° (W) 20:22:51 435.3500 MHz FM
JAS-2 19 Apr 20:25:29 20:30:42 32° 262° (W) 20:35:32 435.800 - 435.900 CW/SSB, 435.910 FM
ISS 19 Apr 20:41:46 20:43:58 16° 19° (NNE) 20:46:09 145.800 FM
Saudisat 1A 19 Apr 21:01:17 21:05:31 46° 244° (WSW) 21:09:41 436.775 MHz
HO-68 19 Apr 21:04:57 21:11:54 59° 69° (ENE) 21:18:54 435.675 MHz FM
STRAND 1 19 Apr 21:23:02 21:26:11 17° 297° (WNW) 21:29:20 ?
FUNcube-1 19 Apr 22:01:01 22:03:58 19° 67° (ENE) 22:06:54 145.950 - 145.970 MHz USB
Oscar 11 19 Apr 22:08:35 22:12:52 78° 76° (ENE) 22:17:12 145.825 FM, Beacon 2401.500 USB
MaSat-1 19 Apr 22:14:06 22:16:59 47° 296° (WNW) 22:19:32 437.345 MHz
ISS 19 Apr 22:17:48 22:21:10 76° 38° (NE) 22:24:31 145.800 FM
HO-68 19 Apr 22:54:22 22:59:58 25° 266° (W) 23:05:37 435.675 MHz FM
PCSat 19 Apr 23:28:06 23:29:29 11° 102° (ESE) 23:30:52 145.825 MHz
FUNcube-1 19 Apr 23:36:20 23:40:10 33° 263° (W) 23:43:58 145.950 - 145.970 MHz USB
SO-50 19 Apr 23:43:13 23:46:39 20° 46° (NE) 23:50:08 436.795 FM
ISS 19 Apr 23:56:37 23:57:27 11° 233° (SW) 23:58:17 145.800 FM
Sapphire 20 Apr 00:22:29 00:27:21 35° 110° (ESE) 00:32:14 437.095 MHz 1200 baud AX-25 AFSK
PCSat 20 Apr 01:06:40 01:12:04 88° 297° (WNW) 01:17:31 145.825 MHz
SO-50 20 Apr 01:22:59 01:27:31 53° 243° (WSW) 01:32:06 436.795 FM
Oscar 10/S400 20 Apr 01:46:59 02:01:31 21° 131° (SE) 02:27:26 145.825 - 145.975 CW/USB, Beacon 145.810 USB
UOSAT-12 20 Apr 02:03:46 02:07:46 27° 48° (NE) 02:11:44 437.025 FM, 437.400 FM
Sapphire 20 Apr 02:05:57 02:10:45 32° 307° (NW) 02:15:36 437.095 MHz 1200 baud AX-25 AFSK
AO-27 20 Apr 02:11:40 02:14:50 16° 92° (E) 02:17:59 436.795 MHz FM
ITAMSAT 1 20 Apr 02:21:46 02:25:32 20° 94° (E) 02:29:17 435.822 SSB
KITSAT 1 20 Apr 02:23:42 02:30:57 38° 108° (ESE) 02:38:13 435.175 FM
Oscar 19 20 Apr 02:24:43 02:29:39 42° 99° (E) 02:34:33 437.125 CW, 437.150 USB
AO-Echo 20 Apr 02:24:48 02:27:36 15° 92° (E) 02:30:22 ?
Oscar 16 20 Apr 02:32:57 02:38:04 55° 100° (E) 02:43:09 437.025 USB, Beacon 2401.1428
OPAL 20 Apr 02:39:37 02:44:30 55° 70° (ENE) 02:49:29 ?
PCSat 20 Apr 02:53:17 02:56:17 15° 317° (NW) 02:59:18 145.825 MHz
Uribyol 2 20 Apr 03:09:02 03:14:11 62° 101° (ESE) 03:19:18 436.500 FM
UOSAT-12 20 Apr 03:43:39 03:48:00 37° 245° (WSW) 03:52:18 437.025 FM, 437.400 FM
Gurwin Techsat 1B 20 Apr 03:44:56 03:49:55 40° 98° (E) 03:54:52 435.225 FM
AO-27 20 Apr 03:49:37 03:54:42 57° 288° (WNW) 03:59:45 436.795 MHz FM
ITAMSAT 1 20 Apr 04:00:18 04:05:14 46° 289° (WNW) 04:10:08 435.822 SSB
AO-Echo 20 Apr 04:02:05 04:06:42 49° 288° (WNW) 04:11:13 ?
Oscar 19 20 Apr 04:04:41 04:08:42 23° 295° (WNW) 04:12:43 437.125 CW, 437.150 USB
Oscar 16 20 Apr 04:13:30 04:16:58 18° 297° (WNW) 04:20:26 437.025 USB, Beacon 2401.1428
KITSAT 1 20 Apr 04:18:18 04:26:07 50° 307° (NW) 04:33:59 435.175 FM
OPAL 20 Apr 04:20:35 04:23:43 17° 266° (W) 04:26:53 ?
Uosat F 20 Apr 04:21:31 04:25:19 21° 94° (E) 04:29:05 435.120 FM
TMSAT-1 20 Apr 04:32:34 04:37:54 81° 103° (ESE) 04:43:11 436.925 FM
Uribyol 2 20 Apr 04:50:01 04:53:07 16° 298° (WNW) 04:56:14 436.500 FM
AO-7 20 Apr 04:52:47 05:00:07 33° 97° (E) 05:07:24 29.400 - 29.500 MHz
JAS-1B 20 Apr 04:54:04 04:59:38 56° 101° (E) 05:05:29 435.800 - 435.900 CW/SSB
Gurwin Techsat 1B 20 Apr 05:25:24 05:29:38 25° 294° (WNW) 05:33:52 435.225 FM
RS-15 20 Apr 05:34:57 05:43:04 23° 102° (ESE) 05:50:56 29.354 - 29.394 USB, Beacon 29.352 USB
Uosat F 20 Apr 05:59:34 06:04:14 41° 290° (WNW) 06:08:53 435.120 FM
TMSAT-1 20 Apr 06:14:45 06:17:06 13° 300° (WNW) 06:19:26 436.925 FM
KITSAT 1 20 Apr 06:19:35 06:23:46 15° 332° (NNW) 06:27:58 435.175 FM
MaSat-1 20 Apr 06:38:28 06:40:34 17° 60° (ENE) 06:42:54 437.345 MHz
Hamsat 20 Apr 06:44:03 06:47:42 26° 95° (E) 06:51:21 145.90 MHz
AO-7 20 Apr 06:45:08 06:53:07 53° 295° (WNW) 07:01:06 29.400 - 29.500 MHz
JAS-1B 20 Apr 06:46:10 06:49:55 18° 298° (WNW) 06:53:44 435.800 - 435.900 CW/SSB
STRAND 1 20 Apr 06:57:18 07:02:24 76° 75° (ENE) 07:07:31 ?
JAS-2 20 Apr 07:33:59 07:38:46 30° 97° (E) 07:43:58 435.800 - 435.900 CW/SSB, 435.910 FM
SO-67 20 Apr 07:42:32 07:45:02 18° 94° (E) 07:47:31 435.3500 MHz FM
RS-15 20 Apr 07:42:39 07:54:03 85° 301° (WNW) 08:05:06 29.354 - 29.394 USB, Beacon 29.352 USB
PCSat 20 Apr 08:15:31 08:16:31 10° 38° (NE) 08:17:32 145.825 MHz
MaSat-1 20 Apr 08:16:25 08:18:55 21° 249° (WSW) 08:21:45 437.345 MHz
Hamsat 20 Apr 08:19:59 08:23:36 26° 290° (WNW) 08:27:14 145.90 MHz
STRAND 1 20 Apr 08:40:30 08:42:07 11° 270° (W) 08:43:45 ?
AO-7 20 Apr 08:41:53 08:44:01 11° 315° (NW) 08:46:08 29.400 - 29.500 MHz
Sapphire 20 Apr 09:11:28 09:15:55 25° 50° (NE) 09:20:19 437.095 MHz 1200 baud AX-25 AFSK
SO-67 20 Apr 09:15:21 09:18:08 23° 289° (WNW) 09:20:55 435.3500 MHz FM
JAS-2 20 Apr 09:19:02 09:23:52 34° 291° (WNW) 09:29:07 435.800 - 435.900 CW/SSB, 435.910 FM
PANSAT 20 Apr 09:53:24 09:55:49 16° 175° (S) 09:58:15 not established
